• en Suisse
  • Liste des pays
  • À 7 jours
  • Température de l'eau
  • Carte satellitaire
  • Carte météo
  • Widgets météo
  • user-avatar
    Se connecter

    Météo par heure à Libiya

    Ce jour, 14 Novembre, Mercredi

    Heure Température Précipitation Vent Pression Humidité
    00:00 +7°C° 1.2 mm 5 m/s 751 mmHg 81%
    01:00 +7°C° 1.2 mm 5 m/s 751 mmHg 86%
    02:00 +6°C° 0 mm 4 m/s 751 mmHg 91%
    03:00 +7°C° 0.4 mm 4 m/s 751 mmHg 90%
    04:00 +7°C° 0.4 mm 5 m/s 751 mmHg 88%
    05:00 +7°C° 0.4 mm 5 m/s 750 mmHg 86%
    06:00 +7°C° 0.2 mm 5 m/s 751 mmHg 86%
    07:00 +7°C° 0.2 mm 5 m/s 751 mmHg 85%
    08:00 +7°C° 0 mm 5 m/s 751 mmHg 86%
    09:00 +7°C° 0.5 mm 6 m/s 751 mmHg 84%
    10:00 +7°C° 0.5 mm 6 m/s 752 mmHg 83%
    11:00 +7°C° 0.5 mm 6 m/s 752 mmHg 82%
    12:00 +7°C° 0.7 mm 6 m/s 752 mmHg 82%
    13:00 +7°C° 0.7 mm 6 m/s 752 mmHg 83%
    14:00 +7°C° 0 mm 5 m/s 752 mmHg 84%
    15:00 +7°C° 0.4 mm 5 m/s 753 mmHg 84%
    16:00 +7°C° 0.4 mm 5 m/s 753 mmHg 84%
    17:00 +7°C° 0.4 mm 4 m/s 753 mmHg 83%
    18:00 +7°C° 0 mm 4 m/s 754 mmHg 84%
    19:00 +7°C° 0 mm 4 m/s 754 mmHg 86%
    20:00 +7°C° 0 mm 3 m/s 754 mmHg 87%
    21:00 +7°C° 0 mm 3 m/s 754 mmHg 89%
    22:00 +7°C° 0 mm 3 m/s 755 mmHg 90%
    23:00 +5°C° 0 mm 3 m/s 755 mmHg 92%

    Demain, 15 Novembre, Jeudi

    Heure Température Précipitation Vent Pression Humidité
    00:00 +5°C° 0 mm 3 m/s 755 mmHg 93%
    01:00 +5°C° 0 mm 3 m/s 755 mmHg 93%
    02:00 +6°C° 0 mm 2 m/s 756 mmHg 94%
    03:00 +5°C° 0 mm 3 m/s 756 mmHg 93%
    04:00 +5°C° 0 mm 3 m/s 756 mmHg 93%
    05:00 +5°C° 0 mm 3 m/s 756 mmHg 92%
    06:00 +5°C° 0 mm 3 m/s 756 mmHg 92%
    07:00 +5°C° 0 mm 3 m/s 757 mmHg 92%
    08:00 +5°C° 0 mm 3 m/s 757 mmHg 92%
    09:00 +5°C° 0.1 mm 3 m/s 757 mmHg 90%
    10:00 +6°C° 0.1 mm 4 m/s 757 mmHg 87%
    11:00 +6°C° 0.1 mm 4 m/s 758 mmHg 85%
    12:00 +6°C° 0 mm 4 m/s 758 mmHg 83%
    13:00 +6°C° 0 mm 4 m/s 758 mmHg 81%
    14:00 +6°C° 0 mm 4 m/s 758 mmHg 79%
    15:00 +6°C° 0 mm 4 m/s 759 mmHg 79%
    16:00 +5°C° 0 mm 4 m/s 759 mmHg 79%
    17:00 +5°C° 0 mm 3 m/s 759 mmHg 79%
    18:00 +4°C° 0 mm 4 m/s 760 mmHg 79%
    19:00 +4°C° 0 mm 4 m/s 760 mmHg 79%
    20:00 +4°C° 0 mm 4 m/s 761 mmHg 78%
    21:00 +3°C° 0 mm 3 m/s 761 mmHg 79%
    22:00 +3°C° 0 mm 3 m/s 761 mmHg 80%
    23:00 +2°C° 0 mm 3 m/s 761 mmHg 80%

    Après-demain, 16 Novembre, Vendredi

    Heure Température Précipitation Vent Pression Humidité
    00:00 +2°C° 0 mm 3 m/s 762 mmHg 81%
    01:00 +2°C° 0 mm 3 m/s 762 mmHg 82%
    02:00 +2°C° 0 mm 3 m/s 762 mmHg 83%
    03:00 +2°C° 0 mm 3 m/s 763 mmHg 84%
    04:00 +2°C° 0 mm 3 m/s 763 mmHg 85%
    05:00 +2°C° 0 mm 3 m/s 763 mmHg 86%
    06:00 +2°C° 0 mm 3 m/s 764 mmHg 87%
    07:00 +2°C° 0 mm 3 m/s 764 mmHg 87%
    08:00 +2°C° 0 mm 3 m/s 764 mmHg 88%
    09:00 +2°C° 0 mm 3 m/s 765 mmHg 86%
    10:00 +2°C° 0 mm 3 m/s 765 mmHg 84%
    11:00 +2°C° 0 mm 3 m/s 765 mmHg 82%
    12:00 +2°C° 0 mm 3 m/s 765 mmHg 81%
    13:00 +2°C° 0 mm 3 m/s 765 mmHg 80%
    14:00 +3°C° 0 mm 3 m/s 765 mmHg 78%
    15:00 +2°C° 0 mm 3 m/s 765 mmHg 80%
    16:00 +3°C° 0 mm 2 m/s 765 mmHg 83%
    17:00 +2°C° 0 mm 2 m/s 765 mmHg 85%
    18:00 +2°C° 0 mm 2 m/s 765 mmHg 86%
    19:00 +2°C° 0 mm 2 m/s 766 mmHg 86%
    20:00 +1°C° 0 mm 2 m/s 766 mmHg 87%
    21:00 +1°C° 0 mm 2 m/s 766 mmHg 86%
    22:00 +1°C° 0 mm 2 m/s 766 mmHg 84%
    23:00 -1°C° 0 mm 2 m/s 766 mmHg 83%

    17 Novembre, Samedi

    Heure Température Précipitation Vent Pression Humidité
    00:00 -1°C° 0 mm 2 m/s 766 mmHg 82%
    01:00 -2°C° 0 mm 2 m/s 766 mmHg 81%
    02:00 -2°C° 0 mm 2 m/s 766 mmHg 79%
    03:00 -2°C° 0 mm 2 m/s 766 mmHg 78%
    04:00 -2°C° 0 mm 2 m/s 766 mmHg 77%
    05:00 -2°C° 0 mm 2 m/s 766 mmHg 75%
    06:00 -2°C° 0 mm 2 m/s 766 mmHg 73%
    07:00 -2°C° 0 mm 2 m/s 766 mmHg 71%
    08:00 -2°C° 0 mm 2 m/s 766 mmHg 69%
    09:00 -1°C° 0 mm 2 m/s 766 mmHg 62%
    10:00 +1°C° 0 mm 2 m/s 766 mmHg 55%
    11:00 +2°C° 0 mm 2 m/s 766 mmHg 48%
    12:00 +2°C° 0 mm 2 m/s 766 mmHg 44%
    13:00 +4°C° 0 mm 1 m/s 765 mmHg 40%
    14:00 +5°C° 0 mm 1 m/s 765 mmHg 37%
    15:00 +4°C° 0 mm 1 m/s 765 mmHg 41%
    16:00 +3°C° 0 mm 1 m/s 765 mmHg 45%
    17:00 +2°C° 0 mm 1 m/s 764 mmHg 50%
    18:00 +1°C° 0 mm 1 m/s 764 mmHg 50%
    19:00 +1°C° 0 mm 1 m/s 764 mmHg 50%
    20:00 +1°C° 0 mm 1 m/s 764 mmHg 51%
    21:00 +1°C° 0 mm 1 m/s 764 mmHg 51%
    22:00 +1°C° 0 mm 1 m/s 763 mmHg 51%
    23:00 +1°C° 0 mm 1 m/s 763 mmHg 52%

    18 Novembre, Dimanche

    Heure Température Précipitation Vent Pression Humidité
    00:00 +1°C° 0 mm 1 m/s 763 mmHg 53%
    01:00 -1°C° 0 mm 2 m/s 762 mmHg 55%
    02:00 -1°C° 0 mm 2 m/s 762 mmHg 56%
    03:00 -1°C° 0 mm 2 m/s 761 mmHg 60%
    04:00 -1°C° 0 mm 2 m/s 761 mmHg 64%
    05:00 -1°C° 0 mm 3 m/s 760 mmHg 67%
    06:00 -1°C° 0 mm 3 m/s 760 mmHg 72%
    07:00 -1°C° 0 mm 3 m/s 759 mmHg 77%
    08:00 -1°C° 0 mm 3 m/s 758 mmHg 82%
    09:00 0°C° 0 mm 3 m/s 758 mmHg 82%
    10:00 0°C° 0 mm 4 m/s 758 mmHg 83%
    11:00 +1°C° 0 mm 4 m/s 757 mmHg 84%
    12:00 +1°C° 0.1 mm 4 m/s 757 mmHg 86%
    13:00 +1°C° 0.1 mm 4 m/s 756 mmHg 87%
    14:00 +1°C° 0.1 mm 4 m/s 756 mmHg 89%
    15:00 +1°C° 0.1 mm 4 m/s 755 mmHg 89%
    16:00 +1°C° 0.1 mm 4 m/s 755 mmHg 89%
    17:00 0°C° 0.1 mm 4 m/s 755 mmHg 89%
    18:00 0°C° 0.1 mm 4 m/s 754 mmHg 89%
    19:00 0°C° 0.1 mm 4 m/s 754 mmHg 88%
    20:00 0°C° 0.1 mm 4 m/s 754 mmHg 88%
    21:00 0°C° 0 mm 4 m/s 754 mmHg 88%
    22:00 -1°C° 0 mm 4 m/s 754 mmHg 88%
    23:00 -1°C° 0 mm 4 m/s 754 mmHg 88%

    19 Novembre, Lundi

    Heure Température Précipitation Vent Pression Humidité
    00:00 -1°C° 0.1 mm 4 m/s 753 mmHg 87%
    01:00 -1°C° 0.1 mm 4 m/s 753 mmHg 87%
    02:00 -1°C° 0.1 mm 5 m/s 753 mmHg 86%
    03:00 0°C° 0.3 mm 5 m/s 752 mmHg 86%
    04:00 0°C° 0.3 mm 5 m/s 752 mmHg 86%
    05:00 0°C° 0.3 mm 5 m/s 752 mmHg 86%
    06:00 0°C° 0.2 mm 5 m/s 751 mmHg 86%
    07:00 0°C° 0.2 mm 5 m/s 751 mmHg 86%
    08:00 0°C° 0.2 mm 5 m/s 751 mmHg 86%
    09:00 0°C° 0.1 mm 5 m/s 751 mmHg 85%
    10:00 +1°C° 0.1 mm 5 m/s 751 mmHg 84%
    11:00 +1°C° 0.1 mm 5 m/s 751 mmHg 83%
    12:00 +1°C° 0.2 mm 5 m/s 751 mmHg 82%
    13:00 +1°C° 0.2 mm 5 m/s 751 mmHg 82%
    14:00 +1°C° 0.2 mm 5 m/s 751 mmHg 81%
    15:00 +1°C° 0.1 mm 5 m/s 751 mmHg 82%
    16:00 0°C° 0.1 mm 5 m/s 751 mmHg 83%
    17:00 0°C° 0.1 mm 5 m/s 751 mmHg 84%
    18:00 0°C° 0.1 mm 5 m/s 751 mmHg 84%
    19:00 0°C° 0.1 mm 5 m/s 752 mmHg 84%
    20:00 -1°C° 0.1 mm 5 m/s 752 mmHg 84%
    21:00 -1°C° 0 mm 5 m/s 752 mmHg 85%
    22:00 -1°C° 0 mm 4 m/s 752 mmHg 86%
    23:00 -1°C° 0 mm 4 m/s 752 mmHg 87%
    Voir plus